DW1384 Weather Reports


time (UTC)temp
C
wind
direction
speed
KPH
gust
KPH
rain 1hr
cm
rain 24hr
cm
rain mn
cm
humidity
%
barometer
mb
20260831083915 18 189 0.0 0.0 0.00 0.00 0.00 79 1012.2
20260831083416 18 172 0.0 0.0 0.00 0.00 0.00 80 1012.0
20260831082915 18 286 0.0 0.0 0.00 0.00 0.00 80 1012.1
20260831082410 18 202 0.0 0.0 0.00 0.00 0.00 80 1012.0
20260831081909 18 166 0.0 0.0 0.00 0.00 0.00 81 1012.0
20260831081409 18 224 0.0 0.0 0.00 0.00 0.00 81 1012.0
20260831080909 18 190 0.0 0.0 0.00 0.00 0.00 81 1012.0
20260831080409 17 153 0.0 0.0 0.00 0.00 0.00 82 1011.9
20260831075909 17 116 0.0 0.0 0.00 0.00 0.00 82 1011.9
20260831075409 17 200 0.0 0.0 0.00 0.00 0.00 83 1011.9
20260831074909 17 143 0.0 0.0 0.00 0.00 0.00 83 1011.9
20260831074407 17 84 0.0 0.0 0.00 0.00 0.00 84 1011.9
20260831073907 17 257 0.0 0.0 0.00 0.00 0.00 84 1012.0
20260831073404 17 221 0.0 0.0 0.00 0.00 0.00 85 1011.9
20260831072905 17 193 0.0 0.0 0.00 0.00 0.00 85 1012.0
20260831072405 17 190 0.0 0.0 0.00 0.00 0.00 86 1011.9
20260831072132 17 116 0.0 0.0 0.00 0.00 0.00 87 1011.9
20260831071404 17 122 0.0 0.0 0.00 0.00 0.00 87 1012.0
20260831070905 17 160 0.0 0.0 0.00 0.00 0.00 87 1011.9
20260831070403 17 132 0.0 0.0 0.00 0.00 0.00 87 1012.0
20260831065902 17 133 0.0 0.0 0.00 0.00 0.00 87 1011.9
20260831065402 17 103 0.0 0.0 0.00 0.00 0.00 88 1011.9
20260831064904 17 103 0.0 0.0 0.00 0.00 0.00 88 1011.9
20260831064403 16 103 0.0 0.0 0.00 0.00 0.00 88 1011.9
20260831063901 16 103 0.0 0.0 0.00 0.00 0.00 88 1011.9
20260831063838 16 100 0.0 0.0 0.00 0.00 0.00 89 1012.0
20260831063123 16 166 0.0 0.0 0.00 0.00 0.00 88 1012.0
20260831062358 16 124 0.0 0.0 0.00 0.00 0.00 89 1012.0
20260831061905 16 139 0.0 0.0 0.00 0.00 0.00 89 1011.9
20260831061352 16 140 0.0 0.0 0.00 0.00 0.00 89 1011.9
20260831060852 16 141 0.0 0.0 0.00 0.00 0.00 89 1011.9
20260831060351 16 138 0.0 0.0 0.00 0.00 0.00 89 1011.9
20260831055848 16 137 0.0 0.0 0.00 0.00 0.00 90 1011.9
20260831055348 16 137 0.0 0.0 0.00 0.00 0.00 90 1011.9
20260831054847 16 134 0.0 0.0 0.00 0.00 0.00 90 1011.9
20260831054346 16 144 0.0 0.0 0.00 0.00 0.00 90 1011.9
20260831053845 15 144 0.0 0.0 0.00 0.00 0.00 90 1011.9
20260831053358 15 138 0.0 0.0 0.00 0.00 0.00 90 1011.8
20260831052846 15 154 0.0 0.0 0.00 0.00 0.00 90 1011.8
20260831052354 15 128 0.0 0.0 0.00 0.00 0.00 90 1011.7
20260831051840 15 120 0.0 0.0 0.00 0.00 0.00 90 1011.8
20260831051341 15 167 0.0 0.0 0.00 0.00 0.00 90 1011.7
20260831050841 15 156 0.0 0.0 0.00 0.00 0.00 90 1011.7
20260831050341 15 158 0.0 0.0 0.00 0.00 0.00 90 1011.7
20260831045841 15 134 0.0 0.0 0.00 0.00 0.00 90 1011.7
20260831045602 15 128 0.0 0.0 0.00 0.00 0.00 90 1011.7
20260831045057 15 126 0.0 0.0 0.00 0.00 0.00 90 1011.6
20260831044341 15 208 0.0 0.0 0.00 0.00 0.00 90 1011.6
20260831043836 15 230 0.0 0.0 0.00 0.00 0.00 90 1011.6
20260831043336 15 230 0.0 0.0 0.00 0.00 0.00 90 1011.5
20260831042836 15 241 0.0 0.0 0.00 0.00 0.00 89 1011.6
20260831042336 15 242 0.0 0.0 0.00 0.00 0.00 90 1011.5
20260831041838 15 242 0.0 0.0 0.00 0.00 0.00 90 1011.4
20260831041350 15 242 0.0 0.0 0.00 0.00 0.00 90 1011.4
20260831040837 15 242 0.0 0.0 0.00 0.00 0.00 90 1011.3
20260831040337 15 242 0.0 0.0 0.00 0.00 0.00 90 1011.4
20260831035836 15 116 0.0 0.0 0.00 0.00 0.00 90 1011.4
20260831035332 15 128 0.0 0.0 0.00 0.00 0.00 90 1011.4
20260831034832 15 128 0.0 0.0 0.00 0.00 0.00 90 1011.3
20260831034333 14 128 0.0 0.0 0.00 0.00 0.00 90 1011.4
20260831033834 14 128 0.0 0.0 0.00 0.00 0.00 89 1011.3
20260831033332 14 128 0.0 0.0 0.00 0.00 0.00 90 1011.4
20260831032832 14 128 0.0 0.0 0.00 0.00 0.00 90 1011.5
20260831032332 14 128 0.0 0.0 0.00 0.00 0.00 89 1011.4
20260831032048 13 128 0.0 0.0 0.00 0.00 0.00 89 1011.4
20260831031332 13 128 0.0 0.0 0.00 0.00 0.00 89 1011.3
20260831030829 13 128 0.0 0.0 0.00 0.00 0.00 89 1011.1
20260831030328 13 126 0.0 0.0 0.00 0.00 0.00 89 1011.2
20260831025829 13 134 0.0 0.0 0.00 0.00 0.00 89 1011.3
20260831025550 13 150 0.0 0.0 0.00 0.00 0.00 89 1011.5
20260831024829 13 126 0.0 0.0 0.00 0.00 0.00 89 1011.5
20260831024331 13 126 0.0 0.0 0.00 0.00 0.00 89 1011.6
20260831023831 13 114 0.0 0.0 0.00 0.00 0.00 89 1011.6
20260831023328 13 97 0.0 0.0 0.00 0.00 0.00 89 1011.6
20260831022828 13 96 0.0 0.0 0.00 0.00 0.00 89 1011.5
20260831022544 13 96 0.0 0.0 0.00 0.00 0.00 89 1011.4
20260831021838 13 96 0.0 0.0 0.00 0.00 0.00 89 1011.4
20260831021324 13 96 0.0 0.0 0.00 0.00 0.00 89 1011.4
20260831020824 13 96 0.0 0.0 0.00 0.00 0.00 89 1011.4
20260831020324 13 96 0.0 0.0 0.00 0.00 0.00 89 1011.3
20260831015824 13 96 0.0 0.0 0.00 0.00 0.00 89 1011.3
20260831015324 13 96 0.0 0.0 0.00 0.00 0.00 89 1011.3
20260831014824 13 96 0.0 0.0 0.00 0.00 0.00 89 1011.4
20260831014325 13 96 0.0 0.0 0.00 0.00 0.00 89 1011.4
20260831013820 13 96 0.0 0.0 0.00 0.00 0.00 89 1011.5
20260831013320 13 96 0.0 0.0 0.00 0.00 0.00 89 1011.6
20260831012821 13 96 0.0 0.0 0.00 0.00 0.00 89 1011.5
20260831012540 13 96 0.0 0.0 0.00 0.00 0.00 89 1011.5
20260831011820 13 96 0.0 0.0 0.00 0.00 0.00 89 1011.5
20260831011320 13 96 0.0 0.0 0.00 0.00 0.00 89 1011.6
20260831010821 13 96 0.0 0.0 0.00 0.00 0.00 89 1011.5
20260831010320 13 96 0.0 0.0 0.00 0.00 0.00 88 1011.6
20260831005820 13 96 0.0 0.0 0.00 0.00 0.00 88 1011.7
20260831005808 13 96 0.0 0.0 0.00 0.00 0.00 88 1011.9
20260831004816 13 96 0.0 0.0 0.00 0.00 0.00 88 1011.9
20260831004318 13 96 0.0 0.0 0.00 0.00 0.00 88 1011.9
20260831003817 13 96 0.0 0.0 0.00 0.00 0.00 88 1011.9
20260831003317 13 96 0.0 0.0 0.00 0.00 0.00 88 1011.9
20260831003251 13 96 0.0 0.0 0.00 0.00 0.00 88 1011.9
20260831002316 13 96 0.0 0.0 0.00 0.00 0.00 88 1011.9
20260831001816 13 96 0.0 0.0 0.00 0.00 0.00 88 1011.9
20260831001329 13 96 0.0 0.0 0.00 0.00 0.00 88 1012.0
20260831000813 13 96 0.0 0.0 0.00 0.00 0.00 88 1012.0
20260831000312 13 96 0.0 0.0 0.00 0.00 0.00 88 1012.0
20260830235813 13 96 0.0 0.0 0.00 0.00 0.00 88 1011.9
20260830235313 13 95 0.0 0.0 0.00 0.00 0.00 88 1011.9
20260830235042 13 96 0.0 0.0 0.00 0.00 0.00 88 1012.0
20260830234313 13 95 0.0 0.0 0.00 0.00 0.00 88 1012.1
20260830233812 13 95 0.0 0.0 0.00 0.00 0.00 88 1012.0
20260830233312 13 96 0.0 0.0 0.00 0.00 0.00 88 1012.0
20260830232812 13 95 0.0 0.0 0.00 0.00 0.00 88 1011.9
20260830232321 14 95 0.0 0.0 0.00 0.00 0.00 88 1012.0
20260830231809 14 95 0.0 0.0 0.00 0.00 0.00 88 1012.1
20260830231530 14 95 0.0 0.0 0.00 0.00 0.00 88 1012.1
20260830230808 14 96 0.0 0.0 0.00 0.00 0.00 88 1012.2
20260830230308 14 96 0.0 0.0 0.00 0.00 0.00 88 1012.2
20260830225809 14 96 0.0 0.0 0.00 0.00 0.00 88 1012.2
20260830225308 14 96 0.0 0.0 0.00 0.00 0.00 88 1012.2
20260830224811 14 96 0.0 0.0 0.00 0.00 0.00 87 1012.2
20260830224309 14 96 0.0 0.0 0.00 0.00 0.00 87 1012.4
20260830223808 14 96 0.0 0.0 0.00 0.00 0.00 88 1012.4
20260830223308 14 96 0.0 0.0 0.00 0.00 0.00 88 1012.5
20260830222809 14 96 0.0 0.0 0.00 0.00 0.00 87 1012.4
20260830222528 14 96 0.0 0.0 0.00 0.00 0.00 87 1012.5
20260830221809 14 96 0.0 0.0 0.00 0.00 0.00 87 1012.4
20260830221308 14 96 0.0 0.0 0.00 0.00 0.00 87 1012.4
20260830220808 14 96 0.0 0.0 0.00 0.00 0.00 87 1012.4
20260830220306 14 96 0.0 0.0 0.00 0.00 0.00 87 1012.5
20260830215805 14 96 0.0 0.0 0.00 0.00 0.00 87 1012.5
20260830215305 14 96 0.0 0.0 0.00 0.00 0.00 87 1012.7
20260830215026 14 96 0.0 0.0 0.00 0.00 0.00 87 1012.7
20260830214518 14 96 0.0 0.0 0.00 0.00 0.00 87 1012.7
20260830213801 14 96 0.0 0.0 0.00 0.00 0.00 87 1012.8
20260830213303 14 96 0.0 0.0 0.00 0.00 0.00 87 1012.8
20260830212801 14 96 0.0 0.0 0.00 0.00 0.00 87 1012.8
20260830212305 14 96 0.0 0.0 0.00 0.00 0.00 87 1012.8
20260830211802 14 96 0.0 0.0 0.00 0.00 0.00 87 1013.0
20260830211302 14 96 0.0 0.0 0.00 0.00 0.00 87 1013.0
20260830210803 15 96 0.0 0.0 0.00 0.00 0.00 87 1013.0
20260830210258 14 96 0.0 0.0 0.00 0.00 0.00 86 1013.0
20260830205757 14 96 0.0 0.0 0.00 0.00 0.00 86 1013.0
20260830205300 15 96 0.0 0.0 0.00 0.00 0.00 86 1013.0
20260830204758 15 96 0.0 0.0 0.00 0.00 0.00 86 1013.0
20260830204257 15 96 0.0 0.0 0.00 0.00 0.00 86 1013.0
20260830204020 15 96 0.0 0.0 0.00 0.00 0.00 86 1013.1
20260830203520 15 96 0.0 0.0 0.00 0.00 0.00 86 1012.9
20260830202758 15 96 0.0 0.0 0.00 0.00 0.00 86 1013.0
20260830202257 15 96 0.0 0.0 0.00 0.00 0.00 86 1012.9
20260830202016 15 95 0.0 0.0 0.00 0.00 0.00 86 1013.0
20260830201739 15 95 0.0 0.0 0.00 0.00 0.00 86 1013.0
20260830200807 15 91 0.0 0.0 0.00 0.00 0.00 85 1013.1
20260830200253 15 91 0.0 0.0 0.00 0.00 0.00 85 1013.2
20260830195753 15 91 0.0 0.0 0.00 0.00 0.00 85 1013.1
20260830195513 15 91 0.0 0.0 0.00 0.00 0.00 85 1013.1
20260830195017 15 91 0.0 0.0 0.00 0.00 0.00 85 1013.1
20260830194254 15 91 0.0 0.0 0.00 0.00 0.00 85 1013.1
20260830193753 15 91 0.0 0.0 0.00 0.00 0.00 85 1013.1
20260830193253 16 106 0.0 0.0 0.00 0.00 0.00 85 1013.1
20260830192749 16 106 0.0 0.0 0.00 0.00 0.00 85 1013.2
20260830192512 16 107 0.0 0.0 0.00 0.00 0.00 84 1013.1
20260830191750 16 106 0.0 0.0 0.00 0.00 0.00 84 1013.2
20260830191250 16 107 0.0 0.0 0.00 0.00 0.00 84 1013.2
20260830190749 16 107 0.0 0.0 0.00 0.00 0.00 84 1013.2
20260830190524 16 107 0.0 0.0 0.00 0.00 0.00 84 1013.2
20260830185750 16 104 0.0 0.0 0.00 0.00 0.00 83 1013.2
20260830185250 16 104 0.0 0.0 0.00 0.00 0.00 83 1013.2
20260830184749 17 104 0.0 0.0 0.00 0.00 0.00 83 1013.2
20260830184248 17 104 0.0 0.0 0.00 0.00 0.00 83 1013.1
20260830183746 17 104 0.0 0.0 0.00 0.00 0.00 82 1013.2
20260830183245 17 104 0.0 0.0 0.00 0.00 0.00 82 1013.1
20260830183005 17 104 0.0 0.0 0.00 0.00 0.00 81 1013.0
20260830182245 17 186 0.0 0.0 0.00 0.00 0.00 81 1013.1
20260830181746 18 197 0.0 0.0 0.00 0.00 0.00 80 1013.0
20260830181245 18 201 0.0 0.0 0.00 0.00 0.00 79 1013.0
20260830181004 18 204 0.0 0.0 0.00 0.00 0.00 79 1012.9
20260830180509 18 251 0.0 0.0 0.00 0.00 0.00 79 1012.9
20260830175741 19 251 0.0 0.0 0.00 0.00 0.00 78 1012.9
20260830175242 19 251 0.0 0.0 0.00 0.00 0.00 76 1012.8
20260830174742 19 251 0.0 0.0 0.00 0.00 0.00 75 1012.9
20260830174241 20 251 0.0 0.0 0.00 0.00 0.00 75 1012.9
20260830173741 20 251 0.0 0.0 0.00 0.00 0.00 74 1012.9
20260830173242 20 251 0.0 0.0 0.00 0.00 0.00 73 1012.9
20260830172741 20 251 0.0 0.0 0.00 0.00 0.00 72 1013.0
20260830172243 21 251 0.0 0.0 0.00 0.00 0.00 67 1013.0
20260830171742 21 251 0.0 0.0 0.00 0.00 0.00 70 1012.9
20260830171237 21 251 0.0 0.0 0.00 0.00 0.00 66 1013.0
20260830170738 21 251 0.0 0.0 0.00 0.00 0.00 67 1013.0
20260830170237 21 251 0.0 0.0 0.00 0.00 0.00 64 1013.0
20260830165737 21 251 0.0 0.0 0.00 0.00 0.00 65 1012.9
20260830165238 21 269 0.0 0.0 0.00 0.00 0.00 62 1012.9
20260830164738 21 234 0.0 0.0 0.00 0.00 0.00 65 1012.9
20260830164237 21 194 0.0 0.0 0.00 0.00 0.00 63 1012.9
20260830163738 21 195 0.0 0.0 0.00 0.00 0.00 62 1012.9
20260830163237 21 195 0.0 0.0 0.00 0.00 0.00 62 1012.9
20260830162734 21 267 0.0 0.0 0.00 0.00 0.00 62 1012.8
20260830162233 21 222 0.0 0.0 0.00 0.00 0.00 62 1012.9
20260830161735 21 286 0.0 0.0 0.00 0.00 0.00 62 1012.9
20260830161234 21 166 0.0 0.0 0.00 0.00 0.00 62 1012.9
20260830160733 21 197 0.0 0.0 0.00 0.00 0.00 62 1012.9
20260830160455 22 203 0.0 0.0 0.00 0.00 0.00 63 1012.9
20260830155733 22 321 0.0 0.0 0.00 0.00 0.00 62 1012.9
20260830155233 22 162 0.0 0.0 0.00 0.00 0.00 62 1012.9
20260830154733 22 230 0.0 0.0 0.00 0.00 0.00 62 1012.9
20260830154232 22 205 0.0 0.0 0.00 0.00 0.00 63 1013.0
20260830153949 22 200 0.0 0.0 0.00 0.00 0.00 63 1012.8
20260830153229 22 204 0.0 0.0 0.00 0.00 0.00 63 1012.9
20260830152729 22 255 0.0 0.0 0.00 0.00 0.00 63 1013.0
20260830152230 22 216 0.0 0.0 0.00 0.00 0.00 62 1013.0
20260830151729 22 214 0.0 0.0 0.00 0.00 0.00 63 1013.0
20260830151229 22 146 0.0 0.0 0.00 0.00 0.00 63 1013.0
20260830150742 22 150 0.0 0.0 0.00 0.00 0.00 63 1013.0
20260830150229 22 120 0.0 0.0 0.00 0.00 0.00 64 1013.1
20260830145725 22 215 0.0 0.0 0.00 0.00 0.00 62 1013.1
20260830145226 22 298 0.0 0.0 0.00 0.00 0.00 63 1013.0
20260830144725 22 235 0.0 0.0 0.00 0.00 0.00 64 1013.0
20260830144225 22 353 0.0 0.0 0.00 0.00 0.00 65 1013.1
20260830143739 22 357 0.0 0.0 0.00 0.00 0.00 64 1013.0
20260830143228 22 279 0.0 0.0 0.00 0.00 0.00 64 1013.2
20260830143000 22 288 0.0 0.0 0.00 0.00 0.00 64 1013.2
20260830142238 21 162 0.0 0.0 0.00 0.00 0.00 64 1013.1
20260830141725 22 209 0.0 0.0 0.00 0.00 0.00 63 1013.1
20260830141223 22 254 0.0 0.0 0.00 0.00 0.00 64 1013.1
20260830140721 22 317 0.0 0.0 0.00 0.00 0.00 64 1013.2
20260830140221 22 307 0.0 0.0 0.00 0.00 0.00 64 1013.2
20260830135947 22 275 0.0 0.0 0.00 0.00 0.00 64 1013.2
20260830135221 22 297 0.0 0.0 0.00 0.00 0.00 65 1013.2
20260830134721 22 286 0.0 0.0 0.00 0.00 0.00 64 1013.2
20260830134221 22 323 0.0 0.0 0.00 0.00 0.00 65 1013.2
20260830133721 22 311 0.0 0.0 0.00 0.00 0.00 66 1013.2
20260830133440 21 215 0.0 0.0 0.00 0.00 0.00 65 1013.1
20260830132717 21 197 0.0 0.0 0.00 0.00 0.00 64 1013.2
20260830132218 21 255 0.0 0.0 0.00 0.00 0.00 64 1013.2
20260830131718 21 248 0.0 0.0 0.00 0.00 0.00 64 1013.2
20260830131217 21 221 0.0 0.0 0.00 0.00 0.00 65 1013.2
20260830130717 21 232 0.0 0.0 0.00 0.00 0.00 64 1013.2
20260830130218 21 174 0.0 0.0 0.00 0.00 0.00 66 1013.2
20260830125717 21 290 0.0 0.0 0.00 0.00 0.00 65 1013.3
20260830125435 21 324 0.0 0.0 0.00 0.00 0.00 67 1013.3
20260830124718 21 205 0.0 0.0 0.00 0.00 0.00 68 1013.3
20260830124649 21 248 0.0 0.0 0.00 0.00 0.00 67 1013.3
20260830123711 21 247 0.0 0.0 0.00 0.00 0.00 68 1013.3
20260830123436 21 232 0.0 0.0 0.00 0.00 0.00 69 1013.3
20260830122709 20 289 0.0 0.0 0.00 0.00 0.00 70 1013.3
20260830122210 20 240 0.0 0.0 0.00 0.00 0.00 70 1013.2
20260830121709 20 273 0.0 0.0 0.00 0.00 0.00 71 1013.3
20260830121209 20 176 0.0 0.0 0.00 0.00 0.00 71 1013.3
20260830120708 20 202 0.0 0.0 0.00 0.00 0.00 71 1013.3
20260830120205 20 200 0.0 0.0 0.00 0.00 0.00 70 1013.3
20260830115705 20 261 0.0 0.0 0.00 0.00 0.00 71 1013.3
20260830115159 20 313 0.0 0.0 0.00 0.00 0.00 72 1013.1
20260830114659 20 143 0.0 0.0 0.00 0.00 0.00 72 1013.2
20260830114159 20 261 0.0 0.0 0.00 0.00 0.00 73 1013.3
20260830113918 20 221 0.0 0.0 0.00 0.00 0.00 72 1013.1
20260830113157 20 168 0.0 0.0 0.00 0.00 0.00 72 1013.2
20260830112657 20 65 0.0 0.0 0.00 0.00 0.00 73 1013.2
20260830112157 20 229 0.0 0.0 0.00 0.00 0.00 73 1013.2
20260830111657 20 170 0.0 0.0 0.00 0.00 0.00 75 1013.1
20260830111158 19 282 0.0 0.0 0.00 0.00 0.00 75 1013.0
20260830110655 19 222 0.0 0.0 0.00 0.00 0.00 75 1013.0
20260830110155 19 330 0.0 0.0 0.00 0.00 0.00 77 1013.2
20260830105654 18 343 0.0 0.0 0.00 0.00 0.00 77 1013.2
20260830105151 18 267 0.0 0.0 0.00 0.00 0.00 76 1013.3
20260830104643 18 259 0.0 0.0 0.00 0.00 0.00 75 1013.3
20260830104136 18 222 0.0 0.0 0.00 0.00 0.00 75 1013.3
20260830103630 19 215 0.0 0.0 0.00 0.00 0.00 75 1013.1
20260830103124 19 247 0.0 0.0 0.00 0.00 0.00 76 1013.2
20260830102631 18 193 0.0 0.0 0.00 0.00 0.00 77 1013.2
20260830102113 18 127 0.0 0.0 0.00 0.00 0.00 78 1013.2
20260830101606 18 163 0.0 0.0 0.00 0.00 0.00 80 1013.1
20260830101100 18 142 0.0 0.0 0.00 0.00 0.00 81 1013.1
20260830100554 17 257 0.0 0.0 0.00 0.00 0.00 80 1013.1
20260830100101 17 263 0.0 0.0 0.00 0.00 0.00 80 1013.1
20260830095542 18 252 0.0 0.0 0.00 0.00 0.00 79 1013.1
20260830095037 18 305 0.0 0.0 0.00 0.00 0.00 77 1013.2
20260830094531 18 324 0.0 0.0 0.00 0.00 0.00 76 1013.1
20260830094025 18 277 0.0 0.0 0.00 0.00 0.00 76 1013.0
20260830093518 18 184 0.0 0.0 0.00 0.00 0.00 74 1013.0
20260830093014 18 268 0.0 0.0 0.00 0.00 0.00 74 1012.9
20260830092507 18 118 0.0 0.0 0.00 0.00 0.00 74 1012.8
20260830092001 18 247 0.0 0.0 0.00 0.00 0.00 74 1012.8
20260830091718 18 158 0.0 0.0 0.00 0.00 0.00 74 1012.8
20260830090948 18 132 0.0 0.0 0.00 0.00 0.00 76 1012.7
20260830090443 18 249 0.0 0.0 0.00 0.00 0.00 76 1012.7
20260830085936 18 232 0.0 0.0 0.00 0.00 0.00 76 1012.5
20260830085431 18 199 0.0 0.0 0.00 0.00 0.00 75 1012.4
20260830084924 18 184 0.0 0.0 0.00 0.00 0.00 75 1012.3